Regional Weather Roundup
Issued by NWS State College, PA

Home | Current Version | Previous Version | Text Only | Print | Product List | Glossary On
Versions: 1 2 3 4 5 6 7 8 9 10 11 12 13 14 15 16 17 18 19 20 21 22 23 24 25 26 27 28 29 30 31 32 33 34 35 36 37 38 39 40 41 42 43 44 45 46 47 48 49 50
000
ASUS41 KCTP 050410
RWRCTP

REGIONAL WEATHER ROUNDUP
NATIONAL WEATHER SERVICE STATE COLLEGE PA
1200 AM EDT SUN JUL 05 2015

Note: "fair" indicates few or no clouds below 12,000 feet with no
significant weather and/or obstructions to visibility.

* = STATION THAT DOES NOT REPORT PRECIPITATION /E.G. RAIN...SNOW...ETC/
    THUNDER OR FOG.

PAZ002>004-007>009-013>016-020>023-029>032-050500-
WESTERN PENNSYLVANIA

CITY           SKY/WX    TMP DP  RH WIND       PRES   REMARKS
ERIE           CLEAR     61  54  77 S6        30.07R
MEADVILLE      CLEAR     60  50  69 CALM      30.10R
FRANKLIN*      CLEAR     55  48  76 CALM      30.10S
NEW CASTLE     FAIR      57  57 100 CALM      30.09R
BEAVER COUNTY  NOT AVBL
BUTLER*        CLEAR     57  54  88 CALM      30.09S
PITTSBURGH INT PTCLDY    68  54  60 N6        30.07R
PITTSBURGH     PTCLDY    67  51  56 N3        30.07R
INDIANA*       CLOUDY    61  59  94 CALM      30.11S
LATROBE        NOT AVBL
WASHINGTON CO* NOT AVBL
$$

PAZ004>006-010>012-017>019-024>028-033>037-041-042-045-046-049>053-050500-
CENTRAL PENNSYLVANIA

CITY           SKY/WX    TMP DP  RH WIND       PRES   REMARKS
BRADFORD       CLEAR     51  49  92 SE3       30.10R FOG
DUBOIS         CLEAR     60  51  72 CALM      30.08R
CLEARFIELD     PTCLDY    62  59  90 N5        30.08R
JOHNSTOWN      PTCLDY    64  53  67 N6        30.10R
ALTOONA        FOG       60  59  96 SE3       30.09R VSB 3/4
STATE COLLEGE  CLOUDY    63  63  98 CALM      30.07S FOG
WILLIAMSPORT   PTCLDY    62  60  93 CALM      30.04R FOG
SELINSGROVE    FOG       63  62  97 CALM      30.06R VSB 1/4
FT INDIANTOWN  PTCLDY    63  62  97 S2        30.05R
CAPITAL CITY   PTCLDY    64  62  93 CALM      30.05R FOG
HARRISBURG     MOCLDY    66  63  90 CALM      30.04R FOG
YORK           CLOUDY    66  64  93 CALM      30.05R FOG
$$

PAZ038>040-043-044-047-048-054-055-060>062-067>071-050500-
EASTERN PENNSYLVANIA

CITY           SKY/WX    TMP DP  RH WIND       PRES   REMARKS
SCRANTON       PTCLDY    62  59  90 CALM      30.05R FOG
MOUNT POCONO     N/A     57  54  89 NW3       30.08R FOG
ALLENTOWN      CLOUDY    68  63  84 SW3       30.03S HAZE
QUAKERTOWN*    CLOUDY    66  63  88 CALM      30.05S
READING        CLOUDY    67  64  90 CALM      30.03R
LANCASTER      CLOUDY    66  64  93 CALM      30.04R FOG
COATESVILLE    CLOUDY    66  66 100 CALM      30.06R FOG
POTTSTOWN      CLOUDY    66  65  96 CALM      30.05S FOG
BLUE BELL      CLOUDY    66  63  88 CALM      30.03S
DOYLESTOWN     CLOUDY    65  59  81 CALM      30.03S
WILLOW GROVE   NOT AVBL
NORTH PHILA    CLOUDY    69  56  62 CALM      30.05R
PHILADELPHIA   CLOUDY    69  58  67 NE3       30.03R
$$


USA.gov is the U.S. government's official web portal to all federal, state and local government web resources and services.